| time (UTC) | temp F | wind direction | speed MPH | gust MPH | rain 1hr in | rain 24hr in | rain mn in | humidity % | barometer mb |
| 20260507000502 | 47 | 42 | 2.0 | 4.0 | 0.00 | 0.27 | 0.27 | 89 | 1006.8 |
| 20260506235958 | 47 | 62 | 2.0 | 3.0 | 0.00 | 0.27 | 0.27 | 89 | 1006.9 |
| 20260506235456 | 47 | 77 | 2.0 | 3.0 | 0.00 | 0.27 | 0.27 | 89 | 1006.9 |
| 20260506234951 | 47 | 52 | 3.0 | 3.0 | 0.00 | 0.27 | 0.27 | 89 | 1006.7 |
| 20260506234555 | 47 | 89 | 0.0 | 2.0 | 0.00 | 0.26 | 0.26 | 90 | 1005.7 |
| 20260506234449 | 47 | 93 | 2.0 | 3.0 | 0.00 | 0.27 | 0.27 | 90 | 1006.8 |
| 20260506233946 | 47 | 68 | 3.0 | 3.0 | 0.00 | 0.27 | 0.27 | 90 | 1006.6 |
| 20260506233442 | 47 | 41 | 2.0 | 4.0 | 0.00 | 0.27 | 0.27 | 89 | 1006.4 |
| 20260506233056 | 47 | 80 | 1.0 | 3.0 | 0.00 | 0.26 | 0.26 | 89 | 1005.4 |
| 20260506232939 | 47 | 56 | 2.0 | 3.0 | 0.00 | 0.27 | 0.27 | 89 | 1006.4 |
| 20260506232436 | 47 | 64 | 3.0 | 4.0 | 0.00 | 0.27 | 0.27 | 89 | 1006.4 |
| 20260506231931 | 47 | 86 | 3.0 | 3.0 | 0.00 | 0.27 | 0.27 | 90 | 1006.2 |
| 20260506231556 | 47 | 83 | 0.0 | 3.0 | 0.00 | 0.26 | 0.26 | 90 | 1005.4 |
| 20260506231429 | 47 | 39 | 2.0 | 3.0 | 0.00 | 0.27 | 0.27 | 90 | 1006.4 |
| 20260506230926 | 47 | 64 | 3.0 | 3.0 | 0.00 | 0.27 | 0.27 | 91 | 1006.4 |
| 20260506230422 | 47 | 48 | 3.0 | 3.0 | 0.00 | 0.27 | 0.27 | 91 | 1006.3 |
| 20260506225919 | 47 | 84 | 2.0 | 3.0 | 0.00 | 0.27 | 0.27 | 91 | 1006.1 |
| 20260506225416 | 47 | 82 | 2.0 | 4.0 | 0.00 | 0.27 | 0.27 | 91 | 1006.2 |
| 20260506224913 | 47 | 55 | 2.0 | 3.0 | 0.00 | 0.27 | 0.27 | 91 | 1006.2 |
| 20260506224411 | 47 | 56 | 2.0 | 3.0 | 0.00 | 0.27 | 0.27 | 91 | 1006.1 |
| 20260506223907 | 47 | 75 | 2.0 | 3.0 | 0.00 | 0.27 | 0.27 | 91 | 1006.1 |
| 20260506223402 | 47 | 64 | 2.0 | 3.0 | 0.00 | 0.27 | 0.27 | 91 | 1006.0 |
| 20260506223056 | 48 | 137 | 1.0 | 3.0 | 0.00 | 0.26 | 0.26 | 91 | 1004.9 |
| 20260506222859 | 47 | 28 | 1.0 | 4.0 | 0.00 | 0.27 | 0.27 | 91 | 1006.0 |
| 20260506222355 | 47 | 54 | 2.0 | 2.0 | 0.02 | 0.27 | 0.27 | 92 | 1005.8 |
| 20260506221853 | 47 | 63 | 2.0 | 5.0 | 0.02 | 0.27 | 0.27 | 92 | 1005.7 |
| 20260506221555 | 48 | 123 | 1.0 | 3.0 | 0.00 | 0.26 | 0.26 | 92 | 1004.6 |
| 20260506221350 | 48 | 59 | 2.0 | 4.0 | 0.00 | 0.26 | 0.26 | 92 | 1005.7 |
| 20260506220848 | 48 | 46 | 4.0 | 4.0 | 0.00 | 0.26 | 0.26 | 92 | 1005.5 |
| 20260506220343 | 48 | 88 | 1.0 | 3.0 | 0.00 | 0.26 | 0.26 | 93 | 1005.5 |
| 20260506220055 | 48 | 114 | 0.0 | 3.0 | 0.01 | 0.26 | 0.26 | 93 | 1004.3 |
| 20260506215840 | 48 | 57 | 1.0 | 2.0 | 0.00 | 0.26 | 0.26 | 93 | 1005.3 |
| 20260506215336 | 48 | 58 | 2.0 | 3.0 | 0.00 | 0.26 | 0.26 | 93 | 1005.2 |
| 20260506214832 | 48 | 67 | 3.0 | 4.0 | 0.00 | 0.26 | 0.26 | 93 | 1005.1 |
| 20260506214329 | 48 | 42 | 2.0 | 3.0 | 0.00 | 0.26 | 0.26 | 93 | 1005.0 |
| 20260506213827 | 48 | 323 | 0.0 | 2.0 | 0.00 | 0.26 | 0.26 | 93 | 1005.2 |
| 20260506213324 | 48 | 1 | 0.0 | 3.0 | 0.00 | 0.26 | 0.26 | 93 | 1004.8 |
| 20260506213056 | 49 | 247 | 2.0 | 3.0 | 0.02 | 0.26 | 0.26 | 93 | 1003.9 |
| 20260506212822 | 48 | 44 | 0.0 | 3.0 | 0.00 | 0.26 | 0.26 | 93 | 1005.0 |
| 20260506212317 | 49 | 102 | 1.0 | 3.0 | 0.02 | 0.26 | 0.26 | 94 | 1004.9 |
| 20260506211812 | 49 | 58 | 3.0 | 5.0 | 0.02 | 0.26 | 0.26 | 94 | 1004.7 |
| 20260506211556 | 49 | 252 | 0.0 | 3.0 | 0.04 | 0.26 | 0.26 | 93 | 1003.5 |
| 20260506211309 | 49 | 75 | 2.0 | 3.0 | 0.00 | 0.26 | 0.26 | 93 | 1004.5 |
| 20260506210806 | 49 | 269 | 0.0 | 3.0 | 0.02 | 0.26 | 0.26 | 94 | 1004.2 |
| 20260506210303 | 49 | 69 | 0.0 | 2.0 | 0.02 | 0.26 | 0.26 | 93 | 1004.2 |
| 20260506205800 | 49 | 254 | 3.0 | 4.0 | 0.02 | 0.26 | 0.26 | 93 | 1004.3 |
| 20260506205256 | 49 | 2 | 0.0 | 3.0 | 0.02 | 0.26 | 0.26 | 93 | 1004.1 |
| 20260506204752 | 49 | 74 | 1.0 | 2.0 | 0.02 | 0.25 | 0.25 | 93 | 1003.9 |
| 20260506204556 | 50 | 262 | 1.0 | 3.0 | 0.06 | 0.25 | 0.25 | 92 | 1002.9 |
| 20260506204250 | 50 | 84 | 0.0 | 3.0 | 0.05 | 0.25 | 0.25 | 93 | 1004.0 |
| 20260506203747 | 50 | 19 | 0.0 | 3.0 | 0.02 | 0.24 | 0.24 | 92 | 1003.8 |
| 20260506203244 | 50 | 98 | 1.0 | 4.0 | 0.07 | 0.24 | 0.24 | 92 | 1003.3 |
| 20260506203055 | 51 | 220 | 1.0 | 3.0 | 0.05 | 0.24 | 0.24 | 91 | 1002.5 |
| 20260506202742 | 51 | 265 | 0.0 | 2.0 | 0.07 | 0.24 | 0.24 | 92 | 1003.5 |
| 20260506202238 | 51 | 310 | 1.0 | 2.0 | 0.07 | 0.23 | 0.23 | 92 | 1003.1 |
| 20260506201735 | 51 | 93 | 0.0 | 2.0 | 0.02 | 0.22 | 0.22 | 91 | 1003.4 |
| 20260506201556 | 52 | 223 | 1.0 | 3.0 | 0.03 | 0.22 | 0.22 | 89 | 1002.2 |
| 20260506201232 | 51 | 33 | 2.0 | 3.0 | 0.02 | 0.22 | 0.22 | 90 | 1003.2 |
| 20260506200729 | 52 | 88 | 3.0 | 3.0 | 0.02 | 0.22 | 0.22 | 90 | 1003.3 |
| 20260506200226 | 52 | 291 | 0.0 | 3.0 | 0.07 | 0.22 | 0.22 | 90 | 1003.2 |
| 20260506200055 | 54 | 192 | 1.0 | 3.0 | 0.02 | 0.21 | 0.21 | 86 | 1001.8 |
| 20260506195722 | 53 | 29 | 1.0 | 4.0 | 0.09 | 0.21 | 0.21 | 89 | 1003.0 |
| 20260506195218 | 54 | 132 | 0.0 | 3.0 | 0.05 | 0.20 | 0.20 | 86 | 1003.0 |
| 20260506194716 | 57 | 244 | 2.0 | 6.0 | 0.00 | 0.20 | 0.20 | 82 | 1002.8 |
| 20260506194212 | 59 | 256 | 2.0 | 3.0 | 0.00 | 0.20 | 0.20 | 82 | 1002.3 |
| 20260506193710 | 60 | 230 | 3.0 | 7.0 | 0.00 | 0.20 | 0.20 | 83 | 1002.1 |
| 20260506193207 | 60 | 221 | 5.0 | 8.0 | 0.00 | 0.20 | 0.20 | 83 | 1002.0 |
| 20260506193056 | 60 | 234 | 1.0 | 3.0 | 0.00 | 0.19 | 0.19 | 85 | 1000.6 |
| 20260506192703 | 60 | 233 | 2.0 | 4.0 | 0.00 | 0.20 | 0.20 | 84 | 1002.0 |
| 20260506192200 | 60 | 204 | 0.0 | 2.0 | 0.00 | 0.20 | 0.20 | 84 | 1002.1 |
| 20260506191657 | 60 | 184 | 0.0 | 2.0 | 0.00 | 0.20 | 0.20 | 84 | 1002.0 |
| 20260506191556 | 60 | 224 | 1.0 | 2.0 | 0.00 | 0.19 | 0.19 | 85 | 1000.6 |
| 20260506191153 | 60 | 72 | 1.0 | 2.0 | 0.00 | 0.20 | 0.20 | 85 | 1002.1 |
| 20260506190650 | 60 | 63 | 2.0 | 2.0 | 0.00 | 0.20 | 0.20 | 85 | 1002.2 |
| 20260506190147 | 60 | 230 | 2.0 | 2.0 | 0.00 | 0.20 | 0.20 | 84 | 1002.1 |
| 20260506190057 | 60 | 237 | 1.0 | 3.0 | 0.00 | 0.19 | 0.19 | 86 | 1000.7 |
| 20260506185644 | 60 | 256 | 0.0 | 3.0 | 0.00 | 0.20 | 0.20 | 84 | 1002.1 |
| 20260506185140 | 60 | 41 | 1.0 | 4.0 | 0.00 | 0.20 | 0.20 | 84 | 1002.0 |
| 20260506184638 | 60 | 191 | 1.0 | 4.0 | 0.00 | 0.20 | 0.20 | 84 | 1002.1 |
| 20260506184556 | 60 | 224 | 2.0 | 3.0 | 0.00 | 0.19 | 0.19 | 85 | 1000.9 |
| 20260506184135 | 60 | 131 | 0.0 | 5.0 | 0.00 | 0.20 | 0.20 | 83 | 1002.2 |
| 20260506183632 | 60 | 126 | 0.0 | 1.0 | 0.00 | 0.20 | 0.20 | 85 | 1002.3 |
| 20260506183127 | 59 | 78 | 2.0 | 3.0 | 0.00 | 0.20 | 0.20 | 85 | 1002.1 |
| 20260506183057 | 59 | 172 | 1.0 | 3.0 | 0.00 | 0.19 | 0.19 | 87 | 1000.9 |
| 20260506182625 | 59 | 43 | 0.0 | 3.0 | 0.00 | 0.20 | 0.20 | 85 | 1002.4 |
| 20260506182122 | 59 | 214 | 2.0 | 5.0 | 0.00 | 0.20 | 0.20 | 85 | 1002.4 |
| 20260506181620 | 59 | 134 | 0.0 | 2.0 | 0.00 | 0.20 | 0.20 | 86 | 1002.3 |
| 20260506181117 | 59 | 213 | 3.0 | 9.0 | 0.00 | 0.20 | 0.20 | 85 | 1002.5 |
| 20260506180614 | 59 | 82 | 0.0 | 2.0 | 0.00 | 0.20 | 0.20 | 86 | 1002.3 |
| 20260506180110 | 59 | 229 | 4.0 | 4.0 | 0.00 | 0.20 | 0.20 | 86 | 1002.8 |
| 20260506175606 | 59 | 243 | 1.0 | 2.0 | 0.00 | 0.20 | 0.20 | 87 | 1002.4 |
| 20260506175102 | 59 | 218 | 2.0 | 5.0 | 0.00 | 0.20 | 0.20 | 86 | 1002.4 |
| 20260506174602 | 59 | 107 | 1.0 | 2.0 | 0.00 | 0.20 | 0.20 | 88 | 1002.4 |
| 20260506174555 | 59 | 242 | 0.0 | 3.0 | 0.00 | 0.19 | 0.19 | 88 | 1001.1 |
| 20260506174057 | 59 | 206 | 2.0 | 4.0 | 0.00 | 0.20 | 0.20 | 87 | 1002.5 |
| 20260506173555 | 59 | 101 | 2.0 | 4.0 | 0.00 | 0.20 | 0.20 | 87 | 1002.2 |
| 20260506173057 | 59 | 44 | 0.0 | 2.0 | 0.00 | 0.19 | 0.19 | 89 | 1001.0 |
| 20260506173052 | 59 | 72 | 2.0 | 2.0 | 0.00 | 0.20 | 0.20 | 88 | 1002.6 |
| 20260506172549 | 59 | 71 | 2.0 | 2.0 | 0.00 | 0.20 | 0.20 | 89 | 1002.3 |
| 20260506172045 | 59 | 200 | 2.0 | 2.0 | 0.00 | 0.20 | 0.20 | 90 | 1002.4 |
| 20260506171556 | 58 | 115 | 1.0 | 3.0 | 0.00 | 0.19 | 0.19 | 91 | 1001.1 |
| 20260506171543 | 59 | 85 | 1.0 | 4.0 | 0.00 | 0.20 | 0.20 | 90 | 1002.5 |
| 20260506171041 | 58 | 222 | 1.0 | 3.0 | 0.00 | 0.20 | 0.20 | 89 | 1002.4 |
| 20260506170538 | 58 | 279 | 0.0 | 3.0 | 0.00 | 0.20 | 0.20 | 90 | 1002.4 |
| 20260506170055 | 58 | 242 | 2.0 | 6.0 | 0.00 | 0.19 | 0.19 | 91 | 1001.1 |
| 20260506170035 | 58 | 56 | 0.0 | 3.0 | 0.02 | 0.20 | 0.20 | 90 | 1002.3 |
| 20260506165533 | 58 | 214 | 3.0 | 8.0 | 0.00 | 0.19 | 0.19 | 90 | 1002.5 |
| 20260506165029 | 58 | 217 | 4.0 | 8.0 | 0.00 | 0.19 | 0.19 | 90 | 1002.7 |
| 20260506164556 | 58 | 228 | 2.0 | 10.0 | 0.00 | 0.19 | 0.19 | 89 | 1001.3 |
| 20260506164526 | 58 | 228 | 2.0 | 3.0 | 0.00 | 0.19 | 0.19 | 89 | 1002.5 |
| 20260506164023 | 58 | 240 | 2.0 | 3.0 | 0.00 | 0.19 | 0.19 | 89 | 1002.9 |
| 20260506163520 | 58 | 287 | 2.0 | 3.0 | 0.00 | 0.19 | 0.19 | 88 | 1002.8 |
| 20260506163015 | 58 | 109 | 0.0 | 2.0 | 0.00 | 0.19 | 0.19 | 87 | 1002.8 |
| 20260506162512 | 58 | 129 | 0.0 | 7.0 | 0.00 | 0.19 | 0.19 | 86 | 1002.9 |
| 20260506162009 | 58 | 253 | 2.0 | 4.0 | 0.00 | 0.19 | 0.19 | 87 | 1002.8 |
| 20260506161507 | 58 | 44 | 0.0 | 2.0 | 0.00 | 0.19 | 0.19 | 90 | 1002.6 |
| 20260506161004 | 58 | 66 | 3.0 | 6.0 | 0.00 | 0.19 | 0.19 | 89 | 1002.9 |
| 20260506160501 | 58 | 80 | 1.0 | 3.0 | 0.00 | 0.19 | 0.19 | 88 | 1003.0 |
| 20260506160057 | 58 | 206 | 2.0 | 3.0 | 0.03 | 0.19 | 0.19 | 88 | 1001.6 |
| 20260506155958 | 58 | 84 | 1.0 | 4.0 | 0.00 | 0.19 | 0.19 | 87 | 1002.8 |
| 20260506155457 | 58 | 66 | 2.0 | 4.0 | 0.02 | 0.19 | 0.19 | 88 | 1002.6 |
| 20260506154556 | 58 | 137 | 1.0 | 5.0 | 0.03 | 0.19 | 0.19 | 88 | 1001.4 |
| 20260506153628 | 58 | 222 | 2.0 | 4.0 | 0.02 | 0.18 | 0.18 | 88 | 1002.7 |
| 20260506153125 | 58 | 261 | 3.0 | 6.0 | 0.05 | 0.18 | 0.18 | 88 | 1002.9 |
| 20260506153056 | 58 | 220 | 2.0 | 7.0 | 0.03 | 0.18 | 0.18 | 89 | 1001.6 |
| 20260506152622 | 58 | 252 | 2.0 | 5.0 | 0.07 | 0.18 | 0.18 | 88 | 1002.8 |
| 20260506152120 | 57 | 248 | 2.0 | 8.0 | 0.05 | 0.17 | 0.17 | 89 | 1002.9 |
| 20260506151618 | 58 | 63 | 3.0 | 4.0 | 0.05 | 0.17 | 0.17 | 88 | 1002.9 |
| 20260506151115 | 58 | 60 | 0.0 | 2.0 | 0.02 | 0.17 | 0.17 | 89 | 1002.6 |
| 20260506150612 | 58 | 237 | 1.0 | 2.0 | 0.02 | 0.16 | 0.16 | 89 | 1002.6 |
| 20260506150109 | 58 | 240 | 5.0 | 9.0 | 0.05 | 0.16 | 0.16 | 88 | 1002.8 |
| 20260506150055 | 57 | 230 | 2.0 | 7.0 | 0.01 | 0.16 | 0.16 | 89 | 1001.4 |
| 20260506145605 | 58 | 249 | 4.0 | 8.0 | 0.02 | 0.16 | 0.16 | 88 | 1002.9 |
| 20260506145103 | 57 | 138 | 4.0 | 5.0 | 0.00 | 0.15 | 0.15 | 89 | 1003.0 |
| 20260506144559 | 57 | 89 | 0.0 | 2.0 | 0.00 | 0.15 | 0.15 | 89 | 1002.8 |
| 20260506144555 | 57 | 265 | 1.0 | 6.0 | 0.03 | 0.16 | 0.16 | 90 | 1001.5 |
| 20260506144056 | 57 | 217 | 4.0 | 5.0 | 0.00 | 0.15 | 0.15 | 89 | 1002.6 |
| 20260506143554 | 57 | 236 | 6.0 | 7.0 | 0.00 | 0.15 | 0.15 | 90 | 1002.6 |
| 20260506143056 | 57 | 247 | 3.0 | 5.0 | 0.04 | 0.15 | 0.15 | 92 | 1001.5 |
| 20260506143052 | 57 | 93 | 0.0 | 8.0 | 0.00 | 0.15 | 0.15 | 91 | 1002.9 |
| 20260506142550 | 57 | 124 | 0.0 | 3.0 | 0.02 | 0.15 | 0.15 | 92 | 1002.9 |
| 20260506142048 | 57 | 70 | 0.0 | 3.0 | 0.02 | 0.15 | 0.15 | 92 | 1002.9 |
| 20260506141556 | 56 | 178 | 1.0 | 3.0 | 0.07 | 0.15 | 0.15 | 92 | 1001.4 |
| 20260506141545 | 56 | 75 | 0.0 | 4.0 | 0.00 | 0.15 | 0.15 | 91 | 1002.6 |
| 20260506141043 | 56 | 62 | 3.0 | 4.0 | 0.02 | 0.15 | 0.15 | 91 | 1002.8 |
| 20260506140541 | 56 | 47 | 1.0 | 2.0 | 0.05 | 0.15 | 0.15 | 90 | 1002.7 |
| 20260506140055 | 56 | 240 | 1.0 | 6.0 | 0.09 | 0.15 | 0.15 | 91 | 1001.1 |
| 20260506140038 | 56 | 142 | 0.0 | 2.0 | 0.05 | 0.15 | 0.15 | 91 | 1002.7 |
| 20260506135534 | 56 | 41 | 2.0 | 3.0 | 0.09 | 0.14 | 0.14 | 91 | 1002.8 |
| 20260506135031 | 56 | 80 | 2.0 | 3.0 | 0.09 | 0.13 | 0.13 | 91 | 1002.6 |
| 20260506134554 | 56 | 322 | 0.0 | 2.0 | 0.08 | 0.13 | 0.13 | 91 | 1001.6 |
| 20260506134527 | 56 | 41 | 2.0 | 3.0 | 0.09 | 0.13 | 0.13 | 90 | 1003.0 |
| 20260506134023 | 55 | 77 | 0.0 | 3.0 | 0.07 | 0.12 | 0.12 | 89 | 1003.1 |
| 20260506133521 | 55 | 97 | 1.0 | 2.0 | 0.07 | 0.11 | 0.11 | 90 | 1003.2 |
| 20260506133056 | 55 | 106 | 1.0 | 5.0 | 0.07 | 0.11 | 0.11 | 90 | 1001.8 |
| 20260506133017 | 55 | 96 | 2.0 | 3.0 | 0.09 | 0.11 | 0.11 | 90 | 1003.3 |
| 20260506132514 | 56 | 51 | 3.0 | 4.0 | 0.07 | 0.10 | 0.10 | 89 | 1003.6 |
| 20260506132012 | 55 | 279 | 0.0 | 5.0 | 0.07 | 0.09 | 0.09 | 89 | 1003.6 |
| 20260506131509 | 55 | 56 | 2.0 | 8.0 | 0.09 | 0.09 | 0.09 | 91 | 1003.6 |
| 20260506131005 | 55 | 49 | 2.0 | 4.0 | 0.07 | 0.08 | 0.08 | 94 | 1003.7 |
| 20260506130502 | 55 | 32 | 3.0 | 4.0 | 0.07 | 0.07 | 0.07 | 94 | 1003.6 |
| 20260506130055 | 55 | 226 | 0.0 | 2.0 | 0.03 | 0.06 | 0.06 | 93 | 1002.3 |
| 20260506125959 | 55 | 72 | 2.0 | 3.0 | 0.07 | 0.06 | 0.06 | 94 | 1003.7 |
| 20260506125458 | 55 | 45 | 2.0 | 3.0 | 0.07 | 0.06 | 0.06 | 94 | 1003.9 |
| 20260506124955 | 55 | 70 | 2.0 | 4.0 | 0.05 | 0.05 | 0.05 | 94 | 1003.9 |
| 20260506124555 | 55 | 213 | 1.0 | 2.0 | 0.03 | 0.05 | 0.05 | 93 | 1002.5 |
| 20260506124453 | 55 | 257 | 2.0 | 3.0 | 0.05 | 0.05 | 0.05 | 94 | 1004.0 |
| 20260506123951 | 55 | 63 | 2.0 | 2.0 | 0.02 | 0.04 | 0.04 | 93 | 1004.0 |
| 20260506123448 | 55 | 47 | 2.0 | 3.0 | 0.02 | 0.04 | 0.04 | 93 | 1003.8 |
| 20260506123056 | 55 | 195 | 0.0 | 1.0 | 0.02 | 0.04 | 0.04 | 92 | 1002.0 |
| 20260506122946 | 55 | 37 | 0.0 | 2.0 | 0.02 | 0.04 | 0.04 | 93 | 1003.5 |
| 20260506122443 | 55 | 72 | 0.0 | 2.0 | 0.02 | 0.04 | 0.04 | 92 | 1003.4 |
| 20260506121941 | 55 | 47 | 1.0 | 3.0 | 0.00 | 0.03 | 0.03 | 92 | 1003.2 |
| 20260506121437 | 55 | 52 | 0.0 | 3.0 | 0.02 | 0.03 | 0.03 | 92 | 1003.2 |
| 20260506120934 | 55 | 60 | 2.0 | 3.0 | 0.02 | 0.03 | 0.03 | 92 | 1003.3 |
| 20260506120432 | 55 | 71 | 2.0 | 2.0 | 0.00 | 0.03 | 0.03 | 92 | 1003.4 |
| 20260506120055 | 55 | 195 | 0.0 | 1.0 | 0.02 | 0.03 | 0.03 | 91 | 1001.9 |
| 20260506115929 | 55 | 49 | 2.0 | 3.0 | 0.00 | 0.03 | 0.03 | 92 | 1003.4 |
| 20260506115427 | 55 | 48 | 2.0 | 3.0 | 0.02 | 0.03 | 0.03 | 92 | 1003.4 |
| 20260506114925 | 55 | 42 | 2.0 | 3.0 | 0.02 | 0.03 | 0.03 | 92 | 1003.4 |
| 20260506114556 | 55 | 195 | 0.0 | 1.0 | 0.02 | 0.02 | 0.02 | 90 | 1001.9 |
| 20260506114422 | 55 | 72 | 2.0 | 3.0 | 0.00 | 0.02 | 0.02 | 91 | 1003.4 |
| 20260506113921 | 55 | 70 | 2.0 | 3.0 | 0.00 | 0.02 | 0.02 | 91 | 1003.4 |
| 20260506113418 | 55 | 81 | 2.0 | 3.0 | 0.02 | 0.02 | 0.02 | 91 | 1003.4 |
| 20260506113057 | 56 | 195 | 0.0 | 0.0 | 0.02 | 0.02 | 0.02 | 89 | 1001.9 |
| 20260506112914 | 55 | 60 | 1.0 | 2.0 | 0.02 | 0.02 | 0.02 | 90 | 1003.6 |
| 20260506112412 | 55 | 100 | 1.0 | 2.0 | 0.05 | 0.02 | 0.02 | 90 | 1003.4 |
| 20260506111909 | 55 | 59 | 2.0 | 2.0 | 0.05 | 0.02 | 0.02 | 89 | 1003.5 |
| 20260506111556 | 56 | 195 | 0.0 | 1.0 | 0.01 | 0.01 | 0.01 | 88 | 1001.9 |
| 20260506111407 | 55 | 67 | 2.0 | 2.0 | 0.00 | 0.01 | 0.01 | 89 | 1003.5 |
| 20260506110904 | 55 | 51 | 2.0 | 2.0 | 0.02 | 0.01 | 0.01 | 88 | 1003.6 |
| 20260506110402 | 56 | 41 | 2.0 | 3.0 | 0.05 | 0.01 | 0.01 | 86 | 1003.4 |
| 20260506110055 | 56 | 195 | 0.0 | 1.0 | 0.01 | 0.01 | 0.01 | 85 | 1001.8 |
| 20260506105858 | 56 | 60 | 1.0 | 2.0 | 0.05 | 0.01 | 0.01 | 85 | 1003.3 |
| 20260506105355 | 56 | 50 | 0.0 | 2.0 | 0.02 | 0.00 | 0.00 | 83 | 1003.3 |
| 20260506104852 | 56 | 56 | 1.0 | 2.0 | 0.00 | 0.00 | 0.00 | 83 | 1003.3 |
| 20260506104350 | 56 | 53 | 2.0 | 2.0 | 0.00 | 0.00 | 0.00 | 82 | 1003.3 |
| 20260506103848 | 55 | 64 | 1.0 | 2.0 | 0.00 | 0.00 | 0.00 | 83 | 1003.3 |
| 20260506103345 | 55 | 58 | 2.0 | 2.0 | 0.00 | 0.00 | 0.00 | 84 | 1003.1 |
| 20260506103056 | 56 | 195 | 0.0 | 1.0 | 0.00 | 0.00 | 0.00 | 84 | 1001.4 |
| 20260506102842 | 55 | 66 | 0.0 | 1.0 | 0.00 | 0.00 | 0.00 | 84 | 1003.2 |
| 20260506102340 | 55 | 65 | 0.0 | 2.0 | 0.00 | 0.00 | 0.00 | 84 | 1002.9 |
| 20260506101837 | 55 | 40 | 0.0 | 2.0 | 0.00 | 0.00 | 0.00 | 85 | 1002.8 |
| 20260506101555 | 56 | 195 | 0.0 | 2.0 | 0.00 | 0.00 | 0.00 | 84 | 1001.3 |
| 20260506101333 | 55 | 68 | 1.0 | 2.0 | 0.00 | 0.00 | 0.00 | 84 | 1003.0 |
| 20260506100831 | 55 | 42 | 1.0 | 2.0 | 0.00 | 0.00 | 0.00 | 83 | 1002.9 |
| 20260506100329 | 55 | 10 | 0.0 | 0.0 | 0.00 | 0.00 | 0.00 | 84 | 1002.8 |
| 20260506100056 | 56 | 195 | 1.0 | 2.0 | 0.00 | 0.00 | 0.00 | 83 | 1001.1 |
| 20260506095827 | 55 | 55 | 0.0 | 2.0 | 0.00 | 0.00 | 0.00 | 82 | 1002.7 |
| 20260506095324 | 56 | 66 | 1.0 | 2.0 | 0.00 | 0.00 | 0.00 | 81 | 1002.6 |
| 20260506094821 | 56 | 54 | 2.0 | 2.0 | 0.00 | 0.00 | 0.00 | 81 | 1002.6 |
| 20260506094556 | 56 | 71 | 0.0 | 1.0 | 0.00 | 0.00 | 0.00 | 80 | 1001.1 |
| 20260506094319 | 56 | 47 | 2.0 | 2.0 | 0.00 | 0.00 | 0.00 | 80 | 1002.7 |
| 20260506093817 | 56 | 46 | 2.0 | 2.0 | 0.00 | 0.00 | 0.00 | 79 | 1002.9 |
| 20260506093314 | 56 | 62 | 2.0 | 2.0 | 0.00 | 0.00 | 0.00 | 80 | 1002.8 |
| 20260506093055 | 56 | 71 | 0.0 | 1.0 | 0.00 | 0.00 | 0.00 | 80 | 1001.1 |
| 20260506092812 | 56 | 56 | 2.0 | 2.0 | 0.00 | 0.00 | 0.00 | 80 | 1002.8 |
| 20260506092309 | 56 | 52 | 2.0 | 3.0 | 0.00 | 0.00 | 0.00 | 80 | 1002.6 |
| 20260506091806 | 55 | 49 | 2.0 | 2.0 | 0.00 | 0.00 | 0.00 | 80 | 1002.6 |
| 20260506091555 | 56 | 71 | 0.0 | 2.0 | 0.00 | 0.00 | 0.00 | 81 | 1001.1 |
| 20260506091304 | 56 | 34 | 0.0 | 1.0 | 0.00 | 0.00 | 0.00 | 81 | 1002.7 |
| 20260506090802 | 56 | 55 | 2.0 | 2.0 | 0.00 | 0.00 | 0.00 | 81 | 1002.6 |
| 20260506090258 | 56 | 48 | 2.0 | 2.0 | 0.00 | 0.00 | 0.00 | 81 | 1002.6 |
| 20260506090055 | 56 | 76 | 0.0 | 1.0 | 0.00 | 0.00 | 0.00 | 81 | 1001.0 |
| 20260506085755 | 56 | 55 | 2.0 | 3.0 | 0.00 | 0.00 | 0.00 | 81 | 1002.7 |
| 20260506085251 | 56 | 72 | 2.0 | 2.0 | 0.00 | 0.00 | 0.00 | 81 | 1002.8 |
| 20260506084748 | 56 | 71 | 2.0 | 3.0 | 0.00 | 0.00 | 0.00 | 80 | 1002.6 |
| 20260506084556 | 56 | 76 | 0.0 | 1.0 | 0.00 | 0.00 | 0.00 | 81 | 1001.1 |
| 20260506084244 | 55 | 74 | 2.0 | 3.0 | 0.00 | 0.00 | 0.00 | 80 | 1002.7 |
| 20260506083741 | 55 | 66 | 2.0 | 2.0 | 0.00 | 0.00 | 0.00 | 81 | 1002.9 |
| 20260506083239 | 55 | 54 | 2.0 | 3.0 | 0.00 | 0.00 | 0.00 | 81 | 1002.8 |
| 20260506082736 | 55 | 72 | 1.0 | 3.0 | 0.00 | 0.00 | 0.00 | 81 | 1003.0 |
| 20260506082232 | 55 | 48 | 2.0 | 3.0 | 0.00 | 0.00 | 0.00 | 81 | 1003.1 |
| 20260506081730 | 55 | 50 | 2.0 | 3.0 | 0.00 | 0.00 | 0.00 | 81 | 1003.0 |
| 20260506081556 | 55 | 153 | 0.0 | 1.0 | 0.00 | 0.00 | 0.00 | 81 | 1001.3 |
| 20260506081227 | 55 | 36 | 1.0 | 3.0 | 0.00 | 0.00 | 0.00 | 81 | 1003.0 |
| 20260506080725 | 55 | 59 | 2.0 | 2.0 | 0.00 | 0.00 | 0.00 | 82 | 1002.9 |
| 20260506080221 | 55 | 48 | 1.0 | 3.0 | 0.00 | 0.00 | 0.00 | 82 | 1002.7 |
| 20260506073205 | 55 | 48 | 2.0 | 3.0 | 0.00 | 0.00 | 0.00 | 80 | 1002.7 |
| 20260506073056 | 55 | 228 | 0.0 | 0.0 | 0.00 | 0.00 | 0.00 | 80 | 1001.2 |
| 20260506072702 | 55 | 40 | 0.0 | 2.0 | 0.00 | 0.00 | 0.00 | 80 | 1002.9 |
| 20260506072159 | 55 | 65 | 2.0 | 3.0 | 0.00 | 0.00 | 0.00 | 80 | 1002.8 |
| 20260506071657 | 55 | 45 | 0.0 | 2.0 | 0.00 | 0.00 | 0.00 | 80 | 1003.0 |
| 20260506071155 | 55 | 54 | 2.0 | 2.0 | 0.00 | 0.00 | 0.00 | 79 | 1003.1 |
| 20260506070651 | 55 | 40 | 0.0 | 3.0 | 0.00 | 0.00 | 0.00 | 79 | 1003.2 |
| 20260506070148 | 55 | 53 | 2.0 | 2.0 | 0.00 | 0.00 | 0.00 | 79 | 1003.4 |
| 20260506062125 | 55 | 50 | 1.0 | 2.0 | 0.00 | 0.00 | 0.00 | 79 | 1003.7 |
| 20260506061621 | 55 | 61 | 2.0 | 2.0 | 0.00 | 0.00 | 0.00 | 79 | 1003.9 |
| 20260506061555 | 56 | 228 | 0.0 | 0.0 | 0.00 | 0.00 | 0.00 | 79 | 1001.9 |
| 20260506061119 | 55 | 51 | 2.0 | 2.0 | 0.00 | 0.00 | 0.00 | 79 | 1003.7 |
| 20260506060617 | 55 | 55 | 2.0 | 2.0 | 0.00 | 0.00 | 0.00 | 79 | 1003.6 |
| 20260506060114 | 55 | 52 | 2.0 | 2.0 | 0.00 | 0.00 | 0.00 | 79 | 1003.7 |
| 20260506051046 | 56 | 34 | 1.0 | 1.0 | 0.00 | 0.00 | 0.00 | 76 | 1004.3 |
| 20260506050544 | 56 | 59 | 1.0 | 2.0 | 0.00 | 0.00 | 0.00 | 76 | 1004.4 |
| 20260506045034 | 56 | 63 | 2.0 | 2.0 | 0.00 | 0.00 | 0.00 | 76 | 1004.2 |
| 20260506044555 | 57 | 228 | 0.0 | 0.0 | 0.00 | 0.00 | 0.00 | 75 | 1002.4 |
| 20260506044532 | 56 | 86 | 2.0 | 3.0 | 0.00 | 0.00 | 0.00 | 75 | 1004.2 |
| 20260506044029 | 57 | 46 | 1.0 | 1.0 | 0.00 | 0.00 | 0.00 | 75 | 1004.0 |
| 20260506043526 | 57 | 67 | 0.0 | 2.0 | 0.00 | 0.00 | 0.00 | 73 | 1003.9 |
| 20260506043024 | 57 | 32 | 0.0 | 2.0 | 0.00 | 0.00 | 0.00 | 73 | 1004.1 |
| 20260506042523 | 57 | 56 | 3.0 | 3.0 | 0.00 | 0.00 | 0.00 | 73 | 1004.0 |
| 20260506042021 | 58 | 60 | 2.0 | 2.0 | 0.00 | 0.00 | 0.00 | 72 | 1004.0 |
| 20260506041519 | 57 | 61 | 2.0 | 2.0 | 0.00 | 0.00 | 0.00 | 72 | 1004.2 |
| 20260506041015 | 57 | 67 | 2.0 | 2.0 | 0.00 | 0.00 | 0.00 | 73 | 1004.1 |
| 20260506040514 | 57 | 50 | 1.0 | 2.0 | 0.00 | 0.00 | 0.00 | 73 | 1004.1 |
| 20260506040055 | 58 | 228 | 0.0 | 0.0 | 0.00 | 0.00 | 0.00 | 72 | 1002.4 |
| 20260506040009 | 57 | 48 | 2.0 | 2.0 | 0.00 | 0.00 | 0.00 | 73 | 1004.2 |
| 20260506035506 | 57 | 71 | 2.0 | 2.0 | 0.00 | 0.00 | 0.00 | 73 | 1004.2 |
| 20260506035003 | 57 | 51 | 2.0 | 2.0 | 0.00 | 0.00 | 0.00 | 73 | 1004.3 |
| 20260506034555 | 58 | 228 | 0.0 | 0.0 | 0.00 | 0.00 | 0.00 | 72 | 1002.5 |
| 20260506034500 | 57 | 71 | 1.0 | 2.0 | 0.00 | 0.00 | 0.00 | 73 | 1004.1 |
| 20260506033957 | 57 | 46 | 2.0 | 2.0 | 0.00 | 0.00 | 0.00 | 72 | 1004.2 |
| 20260506033455 | 57 | 38 | 2.0 | 2.0 | 0.00 | 0.00 | 0.00 | 72 | 1004.1 |
| 20260506033056 | 59 | 228 | 0.0 | 0.0 | 0.00 | 0.00 | 0.00 | 70 | 1002.4 |
| 20260506032951 | 58 | 56 | 2.0 | 3.0 | 0.00 | 0.00 | 0.00 | 71 | 1004.1 |
| 20260506032449 | 58 | 58 | 2.0 | 3.0 | 0.00 | 0.00 | 0.00 | 71 | 1004.2 |
| 20260506031945 | 58 | 53 | 2.0 | 2.0 | 0.00 | 0.00 | 0.00 | 71 | 1004.1 |
| 20260506031556 | 60 | 228 | 0.0 | 0.0 | 0.00 | 0.00 | 0.00 | 69 | 1002.3 |
| 20260506031442 | 58 | 58 | 2.0 | 3.0 | 0.00 | 0.00 | 0.00 | 70 | 1003.8 |
| 20260506030940 | 59 | 43 | 2.0 | 2.0 | 0.00 | 0.00 | 0.00 | 70 | 1004.2 |
| 20260506030438 | 59 | 45 | 1.0 | 3.0 | 0.00 | 0.00 | 0.00 | 69 | 1004.1 |
| 20260506030056 | 61 | 228 | 0.0 | 0.0 | 0.00 | 0.00 | 0.00 | 67 | 1002.3 |
| 20260506025934 | 59 | 64 | 2.0 | 3.0 | 0.00 | 0.00 | 0.00 | 69 | 1004.1 |
| 20260506025431 | 60 | 53 | 2.0 | 2.0 | 0.00 | 0.00 | 0.00 | 68 | 1004.0 |
| 20260506024928 | 60 | 52 | 1.0 | 3.0 | 0.00 | 0.00 | 0.00 | 67 | 1004.1 |
| 20260506024556 | 61 | 228 | 0.0 | 0.0 | 0.00 | 0.00 | 0.00 | 65 | 1002.3 |
| 20260506024425 | 60 | 41 | 2.0 | 2.0 | 0.00 | 0.00 | 0.00 | 66 | 1004.0 |
| 20260506023920 | 60 | 56 | 2.0 | 2.0 | 0.00 | 0.00 | 0.00 | 65 | 1004.1 |
| 20260506023418 | 60 | 77 | 0.0 | 2.0 | 0.00 | 0.00 | 0.00 | 65 | 1004.1 |
| 20260506023055 | 62 | 228 | 0.0 | 1.0 | 0.00 | 0.00 | 0.00 | 64 | 1002.3 |
| 20260506022914 | 61 | 46 | 1.0 | 2.0 | 0.00 | 0.00 | 0.00 | 65 | 1004.0 |
| 20260506022412 | 61 | 49 | 2.0 | 2.0 | 0.00 | 0.00 | 0.00 | 64 | 1004.1 |
| 20260506021910 | 61 | 45 | 2.0 | 3.0 | 0.00 | 0.00 | 0.00 | 64 | 1004.1 |
| 20260506021555 | 63 | 228 | 0.0 | 1.0 | 0.00 | 0.00 | 0.00 | 62 | 1002.3 |
| 20260506021407 | 62 | 57 | 1.0 | 2.0 | 0.00 | 0.00 | 0.00 | 64 | 1004.1 |
| 20260506020903 | 62 | 33 | 2.0 | 2.0 | 0.00 | 0.00 | 0.00 | 63 | 1003.9 |
| 20260506020402 | 62 | 48 | 2.0 | 2.0 | 0.00 | 0.00 | 0.00 | 62 | 1004.1 |
| 20260506015859 | 63 | 63 | 2.0 | 2.0 | 0.00 | 0.00 | 0.00 | 61 | 1003.9 |
| 20260506015356 | 63 | 55 | 2.0 | 2.0 | 0.00 | 0.00 | 0.00 | 61 | 1004.0 |
| 20260506014853 | 63 | 58 | 2.0 | 2.0 | 0.00 | 0.00 | 0.00 | 60 | 1003.9 |
| 20260506014556 | 65 | 228 | 0.0 | 0.0 | 0.00 | 0.00 | 0.00 | 57 | 1002.3 |
| 20260506014350 | 64 | 45 | 2.0 | 2.0 | 0.00 | 0.00 | 0.00 | 59 | 1003.9 |
| 20260506013846 | 64 | 60 | 1.0 | 2.0 | 0.00 | 0.00 | 0.00 | 58 | 1003.9 |
| 20260506013344 | 64 | 49 | 2.0 | 2.0 | 0.00 | 0.00 | 0.00 | 57 | 1003.8 |
| 20260506013056 | 66 | 228 | 0.0 | 0.0 | 0.00 | 0.00 | 0.00 | 55 | 1002.2 |
| 20260506012840 | 65 | 37 | 2.0 | 2.0 | 0.00 | 0.00 | 0.00 | 56 | 1003.9 |
| 20260506012337 | 65 | 53 | 2.0 | 2.0 | 0.00 | 0.00 | 0.00 | 55 | 1004.0 |
| 20260506011834 | 65 | 63 | 1.0 | 2.0 | 0.00 | 0.00 | 0.00 | 53 | 1003.7 |
| 20260506011555 | 67 | 228 | 0.0 | 0.0 | 0.00 | 0.00 | 0.00 | 51 | 1002.1 |
| 20260506011331 | 65 | 44 | 2.0 | 2.0 | 0.00 | 0.00 | 0.00 | 53 | 1003.7 |
| 20260506010828 | 66 | 48 | 2.0 | 3.0 | 0.00 | 0.00 | 0.00 | 54 | 1003.6 |
| 20260506010326 | 66 | 62 | 2.0 | 2.0 | 0.00 | 0.00 | 0.00 | 53 | 1003.5 |
| 20260506010055 | 68 | 228 | 0.0 | 0.0 | 0.00 | 0.00 | 0.00 | 49 | 1001.9 |
| 20260506005823 | 67 | 46 | 1.0 | 2.0 | 0.00 | 0.00 | 0.00 | 51 | 1003.5 |
| 20260506005320 | 67 | 50 | 2.0 | 2.0 | 0.00 | 0.00 | 0.00 | 50 | 1003.5 |
| 20260506004816 | 68 | 54 | 1.0 | 2.0 | 0.00 | 0.00 | 0.00 | 47 | 1003.5 |
| 20260506004314 | 68 | 42 | 1.0 | 2.0 | 0.00 | 0.00 | 0.00 | 46 | 1003.1 |
| 20260506003809 | 68 | 53 | 2.0 | 2.0 | 0.00 | 0.00 | 0.00 | 46 | 1003.2 |
| 20260506003306 | 69 | 41 | 1.0 | 2.0 | 0.00 | 0.00 | 0.00 | 46 | 1003.3 |
| 20260506003055 | 70 | 228 | 0.0 | 1.0 | 0.00 | 0.00 | 0.00 | 44 | 1001.6 |
| 20260506002802 | 69 | 39 | 1.0 | 2.0 | 0.00 | 0.00 | 0.00 | 45 | 1003.4 |
| 20260506002259 | 69 | 24 | 0.0 | 2.0 | 0.00 | 0.00 | 0.00 | 44 | 1003.1 |
| 20260506001754 | 70 | 51 | 1.0 | 1.0 | 0.00 | 0.00 | 0.00 | 46 | 1003.4 |
| 20260506001555 | 71 | 228 | 0.0 | 1.0 | 0.00 | 0.00 | 0.00 | 44 | 1001.5 |
| 20260506001252 | 70 | 38 | 1.0 | 2.0 | 0.00 | 0.00 | 0.00 | 46 | 1003.4 |
| 20260506000749 | 70 | 55 | 0.0 | 1.0 | 0.00 | 0.00 | 0.00 | 44 | 1003.2 |